Home > Weather > Rio Grande > Past weeks

Flag for Brazil Weather for the Past 2 Weeks in Rio Grande, Rio Grande do Sul, Brazil

Now
45 °F

Sunny.


Feels Like: 43 °F
Forecast: 52 / 64 °F
Wind: 3 mph from West

Location: Pelotas Airport

Current Time: May 2, 2016 at 8:24:17 AM

Latest Report: May 2, 2016 at 8:00 AM


Visibility: 10 mi

Pressure: 30.15 "Hg

Humidity: 100%

Dew Point: 45 °F

Location of Rio GrandeLocation

Historic Weather in Rio Grande — Graph

°F

Rio Grande Temperature Yesterday

Maximum temperature yesterday: 59 °F (at 11:00 AM)
Minimum temperature yesterday: 43 °F (at 7:00 AM)
Average temperature yesterday: 50 °F

High & Low Weather Summary for the Past Weeks

 TemperatureHumidityPressure
High88 °F (Apr 19, 2:00 PM)100% (Apr 18, 12:00 AM)30.21 "Hg (Apr 18, 12:00 AM)
Low32 °F (Apr 24, 9:00 AM)39% (Apr 27, 2:00 PM)29.56 "Hg (Apr 25, 5:00 AM)
Average63 °F84%29.96 "Hg
* Reported Apr 17 7:00 AM — May 2 7:00 AM, Rio Grande, Weather by CustomWeather, © 2016

Note: Actual official high and low records may vary slightly from our data, if they occured in-between our weather recording intervals... More about our weather records

Advertising

Rio Grande Weather History for the Previous 24 Hours

Scroll right to see more
 ConditionsComfort  
Time TempWeatherWind HumidityBarometerVisibility
7:00 AM
Mon, May 2
41 °FClear.No wind100%30.12 "Hg6 mi
6:00 AM43 °FClear.2 mph93%30.12 "Hg5 mi
5:00 AM43 °FClear.2 mph100%30.09 "Hg5 mi
4:00 AM45 °FClear.2 mph93%30.12 "Hg4 mi
3:00 AM45 °FClear.2 mph100%30.12 "Hg4 mi
2:00 AM46 °FClear.5 mph93%30.15 "Hg4 mi
1:00 AM45 °FClear.2 mph93%30.12 "Hg5 mi
12:00 AM45 °FClear.2 mph100%30.15 "Hg5 mi
11:00 PM
Sun, May 1
46 °FClear.3 mph100%30.15 "Hg10 mi
10:00 PM46 °FClear.3 mph100%30.15 "Hg10 mi
9:00 PM48 °FClear.1 mph94%30.15 "Hg10 mi
8:00 PM50 °FClear.2 mph94%30.15 "Hg10 mi
7:00 PM52 °FClear.2 mph88%30.12 "Hg10 mi
11:00 AM59 °FSunny.9 mph55%30.21 "Hg10 mi
10:00 AM57 °FSunny.7 mph63%30.21 "Hg10 mi
9:00 AM52 °FSunny.5 mph77%30.21 "Hg10 mi
8:00 AM46 °FSunny.5 mph87%30.21 "Hg10 mi
Weather by CustomWeather, © 2016

See weather overviewHow to use our weather pages